Showing default

ERS 9, 635

Orbit data source: Space-Track

ERS 9, 635 is a payload satellite owned by USAF SSD (US) in LEO that was launched on Fri, 19 Jul 1963 UTC via an ATLAS AGENA B launch vehicle from the Air Force Western Test Range (AFWTR). Payload-class satellites include a variety of spacecraft equipped with specific instruments for various scientific and technological missions. These include communications satellites like Starlink; space stations such as the ISS; scientific satellites like the Hubble; Earth observation satellites from companies like Planet Labs, Umbra, and HawkEye 360; GPS; miniature CubeSats for education and research; and military/defense satellites.

Loading next visibility...
Identifier
635, 1963-030B
Orbit
LEO
Country
Flag of USUS
Related business
Manufacturer
TRW
Mission
Spacecraft
Bus & Motor
TRS, Unknown motor
Mass
1 kg wet, 1 kg dry
Launch date (UTC)
1963-07-19 (62 years ago)
Launch vehicle
ATLAS AGENA B
Launch site
Air Force Western Test Range (AFWTR)
Object type
Payload
Rocket body
Debris
Shape & HBR
Unknown
Radar Cross Section
Small (<0.1 m²)

Expand to show TLE details & history
Last TLE update: 2 months ago

TLE from 2 months ago
0 ERS 9
1 00635U 63030B   25281.42451812 -.00000018  00000-0 -10374-1 0  9998
2 00635  88.4228 228.9160 0044348 284.1662  75.4263  8.57948362948851
Epoch: 2025-10-08T10:11Z
TLE epoch observation values (Epoch: 2025-10-08T10:11:18.365Z)
Latitude
-0.00006°
Longitude
58.79022°
Altitude
3,692.22 km
Speed
6.296 km/s
True Right ascension
15h 15m 39s
True Declination
0° 00' 00"
Sunlit
Object was in daylight at epoch
Visualization orbit readout
Latitude
Unknown
Longitude
Unknown
Altitude
Unknown
Speed
Unknown
Apparent Right ascension
Unknown
Apparent Declination
Unknown
Sunlit
N/A
Visualization observer readout
Local Sidereal Time
02:35:13
Azimuth
Unknown
Elevation
Unknown
Doppler factor
Unknown
Orbital elements
Apogee altitude
3,743.618 km
Perigee altitude
3,654.239 km
Semi-major axis
10,077.066 km
Eccentricity
0.00443
Inclination
88.4228°
RAAN
228.916°
Arg. of periapsis
284.1662°
True anomaly
75.91882°
Mean anomaly
75.4263°
Eccentric anomaly
75.67249°
Mean motion
2.14557 °/min
Orbital period
167.79 mins
BSTAR
-0.010374
Loading maneuver chart data...
Computing Atmospheric mass density...
Loading historical data...
Loading historical data...
Loading historical data...
Loading historical data...
Loading historical data...
Loading historical data...
Loading historical data...

Documentation

Showing up to 5 results
|